Location: Colorado Springs
(38.8340°N, 104.8210°W)
Time: 15:31:30
(UTC-07:00)

N. Korean satellite - Pass Details

Date: 10 October 2017
Orbit: 461 x 513 km, 97.2° (Epoch: 16 December)

Event Time Altitude Azimuth Distance (km) Brightness Sun altitude
Rises 18:58:37 0° 164° (SSE) 2,566 10.1 -6.8°
Reaches altitude 10° 19:00:42 10° 163° (SSE) 1,680 9.2 -7.2°
Maximum altitude 19:04:18 79° 78° (ENE) 500 6.5 -7.9°
Drops below altitude 10° 19:07:53 10° 351° (N) 1,662 9.4 -8.6°
Sets 19:09:56 0° 350° (N) 2,537 10.3 -9.0°
